Regional Weather Roundup
Issued by NWS

Home | Current Version | Previous Version | Text Only | Print | Product List | Glossary Off
Versions: 1 2 3 4 5 6 7 8 9 10 11 12 13 14 15 16 17 18 19 20 21 22 23 24 25 26 27 28 29 30 31 32 33 34 35 36 37 38 39 40 41 42 43 44 45 46 47 48 49 50

000
ASUS43 KIND 180100
RWRIN

WEATHER ROUNDUP FOR INDIANA
NATIONAL WEATHER SERVICE INDIANAPOLIS IN
900 PM EDT THU AUG 17 2017

NOTE: "FAIR" INDICATES FEW OR NO CLOUDS BELOW 12,000 FEET WITH NO
SIGNIFICANT WEATHER AND/OR OBSTRUCTIONS TO VISIBILITY.

* - STATION DOES NOT REPORT WEATHER SUCH AS PRECIPITATION OR FOG.

+ - STATION NOT QUALITY CONTROLLED BY THE NATIONAL WEATHER SERVICE.
    USE DATA WITH CAUTION...ESPECIALLY DEWPOINT AND RELATIVE
    HUMIDITY OBSERVATIONS.

INZ001>003-010>013-019-020-180200-
NORTHWEST INDIANA

CITY           SKY/WX    TMP DP  RH WIND       PRES   REMARKS
GARY /AIRPORT/   N/A     79  63  57 SW14      29.77R
MICHIGAN CITY+ CLOUDY    77  63  61 SW12      29.77S
MONTICELLO +   PTCLDY    76  68  76 SW5       29.80S
RENSSELAER +   CLOUDY    73  63  68 SW7       29.81R

$$

LMZ046-743>745-180200-
SOUTHERN LAKE MICHIGAN

STATION/POSITION TIME  TEMP    WIND        PRES    WAVE
                       AIR SEA DIR/SP/G            HT
                 (UTC) (F)     (DEG/KT/KT) (MB)    (FT)
BURNS HARBOR     0040   79     220/ 12/ 17 1008.1R
MICHIGAN CITY    0030   78     210/ 14/ 16   N/A
5NW MICH CITY    0050   77 75  240/ 14/ 17   N/A     3

$$

INZ004-005-014>016-021>024-180200-
NORTH CENTRAL INDIANA

CITY           SKY/WX    TMP DP  RH WIND       PRES   REMARKS
ELKHART        CLOUDY    77  66  69 SW14      29.77R
GOSHEN         CLOUDY    74  65  73 SW8       29.78R
PERU/GRISSOM   CLEAR     72  69  91 SW7       29.81S
SOUTH BEND     CLOUDY    76  68  76 SW9       29.77S

$$

INZ006>009-017-018-025>027-180200-
NORTHEAST INDIANA

CITY           SKY/WX    TMP DP  RH WIND       PRES   REMARKS
FORT WAYNE     PTCLDY    76  67  73 W8        29.81R
KENDALLVILLE + CLEAR     74  66  76 SW12G17   29.79S

$$

INZ028-029-035-036-043>045-051>053-180200-
WEST CENTRAL INDIANA

CITY           SKY/WX    TMP DP  RH WIND       PRES   REMARKS
LAFAYETTE      PTCLDY    75  69  81 CALM      29.81R
TERRE HAUTE    PTCLDY    79  69  71 SW6       29.84R

$$

INZ030>032-037>040-046>048-054>057-064-065-180200-
CENTRAL INDIANA

CITY           SKY/WX    TMP DP  RH WIND       PRES   REMARKS
COLUMBUS       CLEAR     79  68  69 SW8       29.85S
GREENWOOD *+   CLEAR     78  67  68 W5        29.85S
INDIANAPOLIS   PTCLDY    79  68  69 SW9       29.84R
-EAGLE CREEK   CLEAR     79  68  69 SW5       29.83S
KOKOMO +       CLEAR     75  69  81 W6        29.83S
MT COMFORT *+  PTCLDY    79  68  69 SW7       29.85R
SHELBYVILLE    CLOUDY    79  67  66 SW6       29.84R

$$

INZ033-034-041-042-049-050-058-059-180200-
EAST CENTRAL INDIANA

CITY           SKY/WX    TMP DP  RH WIND       PRES   REMARKS
MUNCIE         PTCLDY    80  69  69 SW5       29.84R
RICHMOND +     CLOUDY    72  68  88 SW6       29.87S

$$

INZ060-061-067>069-081>083-085>088-180200-
SOUTHWEST INDIANA

CITY           SKY/WX    TMP DP  RH WIND       PRES   REMARKS
EVANSVILLE     PTCLDY    82  71  69 SW8       29.87R
HUNTINGBURG +  PTCLDY    78  75  90 S7        29.87S

$$

INZ062-063-066-070>080-084-089>092-180200-
SOUTH CENTRAL AND SOUTHEAST INDIANA

CITY           SKY/WX    TMP DP  RH WIND       PRES   REMARKS
BLOOMINGTON    PTCLDY    77  68  73 SW3       29.86R
MADISON *+     CLOUDY    73  72  94 S6        29.90S
SEYMOUR +      CLOUDY    81  72  74 S7        29.85S

$$




USA.gov is the U.S. government's official web portal to all federal, state and local government web resources and services.